| time (UTC) | temp F | wind direction | speed MPH | gust MPH | rain 1hr in | rain 24hr in | rain mn in | humidity % | barometer mb |
| 20260506132632 | 82 | 0 | 0.0 | 15.0 | 0.00 | 0.04 | 0.04 | 95 | |
| 20260506131631 | 82 | 0 | 0.0 | 15.0 | 0.00 | 0.04 | 0.04 | 95 | |
| 20260506130631 | 84 | 0 | 0.0 | 15.0 | 0.00 | 0.04 | 0.04 | 95 | |
| 20260506124629 | 82 | 0 | 15.0 | 23.0 | 0.00 | 0.04 | 0.04 | 95 | |
| 20260506123629 | 82 | 270 | 0.0 | 15.0 | 0.00 | 0.04 | 0.04 | 95 | |
| 20260506120626 | 84 | 270 | 0.0 | 15.0 | 0.00 | 0.04 | 0.04 | 95 | |
| 20260506115626 | 82 | 270 | 15.0 | 31.0 | 0.00 | 0.04 | 0.04 | 95 | |
| 20260506114625 | 84 | 0 | 15.0 | 31.0 | 0.00 | 0.04 | 0.04 | 95 | |
| 20260506112623 | 84 | 180 | 0.0 | 15.0 | 0.00 | 0.04 | 0.04 | 95 | |
| 20260506111623 | 84 | 0 | 0.0 | 15.0 | 0.00 | 0.04 | 0.04 | 95 | |
| 20260506105621 | 86 | 315 | 7.0 | 15.0 | 0.00 | 0.04 | 0.04 | 95 | |
| 20260506103619 | 84 | 0 | 0.0 | 15.0 | 0.00 | 0.04 | 0.04 | 95 | |
| 20260506102618 | 82 | 180 | 0.0 | 15.0 | 0.00 | 0.04 | 0.04 | 95 | |
| 20260506100616 | 86 | 270 | 0.0 | 23.0 | 0.00 | 0.04 | 0.04 | 95 | |
| 20260506093614 | 82 | 0 | 15.0 | 31.0 | 0.02 | 0.04 | 0.04 | 86 | |
| 20260506091612 | 84 | 315 | 23.0 | 31.0 | 0.02 | 0.04 | 0.04 | 95 | |
| 20260506090611 | 84 | 315 | 7.0 | 31.0 | 0.02 | 0.04 | 0.04 | 95 | |
| 20260506084610 | 84 | 315 | 7.0 | 23.0 | 0.02 | 0.02 | 0.04 | 92 | |
| 20260506083609 | 80 | 180 | 0.0 | 55.0 | 0.02 | 0.02 | 0.04 | 95 | |
| 20260506081607 | 84 | 180 | 31.0 | 79.0 | 0.02 | 0.02 | 0.04 | 95 | |
| 20260506071602 | 89 | 180 | 47.0 | 95.0 | 0.00 | 0.00 | 0.04 | 95 | |
| 20260506070601 | 87 | 180 | 39.0 | 102.0 | 0.00 | 0.00 | 0.04 | 95 | |
| 20260506060557 | 95 | 90 | 15.0 | 71.0 | 0.00 | 0.00 | 0.04 | 16 | |
| 20260506050552 | 93 | 0 | 15.0 | 63.0 | 0.00 | 0.00 | 0.04 | 11 | |
| 20260506044551 | 95 | 0 | 0.0 | 47.0 | 0.00 | 0.00 | 0.04 | 10 | |
| 20260506043551 | 95 | 0 | 23.0 | 39.0 | 0.00 | 0.00 | 0.04 | 24 | |
| 20260506042550 | 91 | 180 | 7.0 | 39.0 | 0.00 | 0.00 | 0.04 | 46 | |
| 20260506040548 | 89 | 180 | 0.0 | 47.0 | 0.00 | 0.00 | 0.04 | 71 | |
| 20260506035548 | 89 | 180 | 7.0 | 47.0 | 0.00 | 0.00 | 0.04 | 95 | |
| 20260506034547 | 89 | 180 | 7.0 | 63.0 | 0.00 | 0.00 | 0.04 | 95 | |
| 20260506032545 | 91 | 180 | 23.0 | 79.0 | 0.00 | 0.00 | 0.04 | 95 | |
| 20260506031544 | 87 | 180 | 15.0 | 63.0 | 0.00 | 0.00 | 0.04 | 95 | |
| 20260506030543 | 89 | 180 | 15.0 | 55.0 | 0.00 | 0.00 | 0.04 | 95 | |
| 20260506024541 | 91 | 315 | 7.0 | 31.0 | 0.00 | 0.00 | 0.04 | 95 | |
| 20260506023540 | 93 | 315 | 7.0 | 31.0 | 0.00 | 0.00 | 0.04 | 94 | |
| 20260506022540 | 91 | 315 | 7.0 | 31.0 | 0.00 | 0.00 | 0.04 | 95 | |
| 20260506021539 | 89 | 180 | 0.0 | 31.0 | 0.00 | 0.00 | 0.04 | 95 | |
| 20260506020539 | 87 | 180 | 0.0 | 23.0 | 0.00 | 0.00 | 0.04 | 95 | |
| 20260506015538 | 86 | 180 | 15.0 | 31.0 | 0.00 | 0.00 | 0.04 | 95 | |
| 20260506013537 | 86 | 180 | 15.0 | 23.0 | 0.00 | 0.00 | 0.04 | 95 | |
| 20260506012536 | 86 | 270 | 15.0 | 15.0 | 0.00 | 0.00 | 0.04 | 95 | |
| 20260506010535 | 84 | 270 | 7.0 | 31.0 | 0.00 | 0.00 | 0.04 | 95 | |
| 20260506005534 | 84 | 270 | 7.0 | 31.0 | 0.00 | 0.00 | 0.04 | 95 | |
| 20260506003533 | 82 | 270 | 7.0 | 15.0 | 0.00 | 0.00 | 0.04 | 95 | |
| 20260506002532 | 82 | 315 | 7.0 | 23.0 | 0.00 | 0.00 | 0.04 | 95 | |
| 20260506001532 | 82 | 315 | 15.0 | 39.0 | 0.00 | 0.00 | 0.04 | 95 | |
| 20260506000531 | 82 | 315 | 0.0 | 15.0 | 0.00 | 0.00 | 0.04 | 95 | |
| 20260505234530 | 80 | 180 | 0.0 | 15.0 | 0.00 | 0.00 | 0.04 | 95 | |
| 20260505233529 | 80 | 180 | 0.0 | 15.0 | 0.00 | 0.00 | 0.04 | 95 | |
| 20260505231527 | 82 | 180 | 0.0 | 15.0 | 0.00 | 0.00 | 0.04 | 95 | |
| 20260505230527 | 80 | 270 | 0.0 | 7.0 | 0.00 | 0.00 | 0.04 | 95 | |
| 20260505225526 | 80 | 270 | 0.0 | 15.0 | 0.00 | 0.00 | 0.04 | 95 | |
| 20260505223524 | 80 | 270 | 15.0 | 23.0 | 0.00 | 0.00 | 0.04 | 95 | |
| 20260505222524 | 80 | 315 | 0.0 | 15.0 | 0.00 | 0.00 | 0.04 | 95 | |
| 20260505220522 | 80 | 315 | 0.0 | 15.0 | 0.00 | 0.00 | 0.04 | 95 | |
| 20260505215521 | 80 | 315 | 0.0 | 0.0 | 0.00 | 0.00 | 0.04 | 95 | |
| 20260505213520 | 82 | 315 | 0.0 | 15.0 | 0.00 | 0.00 | 0.04 | 95 | |
| 20260505212519 | 80 | 180 | 0.0 | 0.0 | 0.00 | 0.00 | 0.04 | 95 | |
| 20260505205516 | 80 | 0 | 0.0 | 23.0 | 0.00 | 0.00 | 0.04 | 95 | |
| 20260505203515 | 82 | 270 | 7.0 | 23.0 | 0.00 | 0.00 | 0.04 | 95 | |
| 20260505201513 | 82 | 315 | 0.0 | 7.0 | 0.00 | 0.00 | 0.04 | 95 | |
| 20260505200513 | 80 | 315 | 0.0 | 7.0 | 0.00 | 0.00 | 0.04 | 95 | |
| 20260505195512 | 82 | 315 | 0.0 | 15.0 | 0.00 | 0.00 | 0.04 | 95 | |
| 20260505194511 | 80 | 315 | 0.0 | 0.0 | 0.00 | 0.00 | 0.04 | 95 | |
| 20260505192509 | 82 | 180 | 15.0 | 15.0 | 0.00 | 0.00 | 0.04 | 95 | |
| 20260505190508 | 80 | 180 | 0.0 | 23.0 | 0.00 | 0.00 | 0.04 | 95 | |
| 20260505184506 | 82 | 0 | 0.0 | 15.0 | 0.00 | 0.00 | 0.04 | 90 | |
| 20260505181503 | 80 | 0 | 0.0 | 15.0 | 0.00 | 0.00 | 0.04 | 95 | |
| 20260505180503 | 82 | 270 | 0.0 | 15.0 | 0.00 | 0.00 | 0.04 | 95 | |
| 20260505174502 | 82 | 270 | 0.0 | 15.0 | 0.00 | 0.00 | 0.04 | 95 | |
| 20260505173502 | 80 | 270 | 0.0 | 23.0 | 0.00 | 0.00 | 0.04 | 95 | |
| 20260505171500 | 82 | 0 | 0.0 | 7.0 | 0.00 | 0.00 | 0.04 | 95 | |
| 20260505170500 | 82 | 0 | 0.0 | 15.0 | 0.00 | 0.00 | 0.04 | 95 | |
| 20260505164459 | 82 | 180 | 15.0 | 15.0 | 0.00 | 0.04 | 0.04 | 95 | |
| 20260505162457 | 82 | 0 | 7.0 | 15.0 | 0.00 | 0.04 | 0.04 | 95 | |
| 20260505152452 | 80 | 315 | 0.0 | 15.0 | 0.00 | 0.04 | 0.02 | 95 | |
| 20260505151452 | 82 | 315 | 0.0 | 15.0 | 0.00 | 0.04 | 0.02 | 95 | |
| 20260505140445 | 80 | 315 | 0.0 | 15.0 | 0.00 | 0.04 | 0.02 | 95 |